Montevideo, MN

3:51 AM CDT on August 23, 2017 (GMT -0500)
Montevideo-Chippewa County

Weather History for KMVE - March, 2013

Change the Weather History Date:

Saturday, March 2, 2013

  Actual Average Record
Temperature  
Mean Temperature 12 °F -  
Max Temperature 24 °F 32 °F 65 °F (1992)
Min Temperature 0 °F 15 °F -14 °F (2014)
Degree Days  
Heating Degree Days 53    
Moisture  
Dew Point 12 °F    
Average Humidity 90    
Maximum Humidity 100    
Minimum Humidity 69    
Precipitation  
Precipitation 0.00 in - - ()
Sea Level Pressure  
Sea Level Pressure 30.24 in    
Wind  
Wind Speed 5 mph (SSE)    
Max Wind Speed 13 mph    
Max Gust Speed -    
Visibility 8 miles    
Events Fog , Snow    
Averages and records for this station are not official NWS values.
T = Trace of Precipitation, MM = Missing Value Source: NWS Daily Summary

Daily Weather History Graph

Daily Weather History Graph

Search for Another Location

Airport or City:

Trip Planner

Search our weather history database for the weather conditions in past years. The results will help you decide how hot, cold, wet, or windy it might be!

Date:

Astronomy

Mar. 02, 2013 Rise Set
Actual Time 6:58 AM CST 6:12 PM CST
Civil Twilight 6:29 AM CST 6:41 PM CST
Nautical Twilight 5:55 AM CST 7:15 PM CST
Astronomical Twilight 5:21 AM CST 7:49 PM CST
Moon No Moon Rise 9:11 AM CST (3/2)
Length of Visible Light 12h 12m
Length of Day
11h 13m
Waning Gibbous, 74% of the Moon is Illuminated
Mar 2
Waning Gibbous
Mar 4
Last Quarter
Mar 11
New
Mar 19
First Quarter
Mar 27
Full

Hourly Weather History & Observations

Time (CST) Temp. Windchill Dew Point Humidity Pressure Visibility Wind Dir Wind Speed Gust Speed Precip Events Conditions
12:14 AM 8.6 °F 2.0 °F 8.6 °F 100% 30.36 in 5.0 mi NW 3.5 mph - N/A   Clear
12:34 AM 8.6 °F 0.1 °F 8.6 °F 100% 30.36 in 7.0 mi NW 4.6 mph - N/A   Clear
12:54 AM 8.6 °F 2.0 °F 8.6 °F 100% 30.36 in 7.0 mi NNW 3.5 mph - N/A   Clear
1:14 AM 8.6 °F - 6.8 °F 92% 30.35 in 7.0 mi Calm Calm - N/A   Clear
1:34 AM 8.6 °F 0.1 °F 6.8 °F 92% 30.35 in 7.0 mi NNW 4.6 mph - N/A   Clear
1:54 AM 6.8 °F -0.1 °F 6.8 °F 100% 30.36 in 7.0 mi NW 3.5 mph - N/A   Clear
2:14 AM 6.8 °F - 5.0 °F 92% 30.35 in 7.0 mi Calm Calm - N/A   Clear
2:34 AM 6.8 °F - 5.0 °F 92% 30.34 in 7.0 mi Calm Calm - N/A   Clear
2:54 AM 5.0 °F -2.1 °F 3.2 °F 92% 30.34 in 7.0 mi NNW 3.5 mph - N/A   Clear
3:14 AM 5.0 °F -2.1 °F 3.2 °F 92% 30.34 in 7.0 mi NNW 3.5 mph - N/A   Scattered Clouds
3:54 AM 5.0 °F - 3.2 °F 92% 30.34 in 0.5 mi Calm Calm - N/A Snow Light Snow
4:14 AM 3.2 °F - 1.4 °F 92% 30.33 in 0.2 mi Calm Calm - N/A Snow Light Snow
4:34 AM 3.2 °F - 1.4 °F 92% 30.33 in 0.2 mi Calm Calm - N/A Fog Light Freezing Fog
5:14 AM 3.2 °F - 1.4 °F 92% 30.33 in 0.2 mi Calm Calm - N/A Fog Light Freezing Fog
6:34 AM -0.4 °F - -2.2 °F 92% 30.33 in 5.0 mi Calm Calm - N/A   Scattered Clouds
6:54 AM -0.4 °F - -2.2 °F 92% 30.33 in 7.0 mi Calm Calm - N/A   Clear
7:14 AM -0.4 °F - -2.2 °F 92% 30.33 in 7.0 mi Calm Calm - N/A   Clear
7:34 AM -0.4 °F - -2.2 °F 92% 30.33 in 5.0 mi Calm Calm - N/A   Clear
7:54 AM 1.4 °F - -2.2 °F 85% 30.32 in 7.0 mi Calm Calm - N/A   Clear
8:14 AM 1.4 °F - -0.4 °F 92% 30.32 in 7.0 mi Calm Calm - N/A   Clear
8:34 AM 3.2 °F - 1.4 °F 92% 30.31 in 5.0 mi Calm Calm - N/A   Clear
8:54 AM 5.0 °F - 3.2 °F 92% 30.31 in 7.0 mi Calm Calm - N/A   Clear
9:14 AM 6.8 °F - 5.0 °F 92% 30.32 in 7.0 mi Calm Calm - N/A   Clear
9:34 AM 8.6 °F 0.1 °F 6.8 °F 92% 30.30 in 10.0 mi South 4.6 mph - N/A   Clear
9:54 AM 10.4 °F -0.4 °F 8.6 °F 92% 30.30 in 10.0 mi SSE 6.9 mph - N/A   Clear
10:14 AM 10.4 °F -0.4 °F 10.4 °F 100% 30.30 in 10.0 mi South 6.9 mph - N/A   Clear
10:34 AM 12.2 °F 2.9 °F 10.4 °F 92% 30.31 in 10.0 mi South 5.8 mph - N/A Snow Light Snow
10:54 AM 12.2 °F 4.3 °F 10.4 °F 92% 30.30 in 10.0 mi South 4.6 mph - N/A   Scattered Clouds
11:14 AM 12.2 °F 2.9 °F 12.2 °F 100% 30.29 in 10.0 mi SSE 5.8 mph - N/A   Scattered Clouds
11:34 AM 14.0 °F 3.9 °F 12.2 °F 93% 30.29 in 10.0 mi SSE 6.9 mph - N/A   Clear
11:54 AM 15.8 °F 7.2 °F 14.0 °F 93% 30.28 in 7.0 mi South 5.8 mph - N/A   Clear
12:14 PM 15.8 °F 6.1 °F 15.8 °F 100% 30.28 in 10.0 mi South 6.9 mph - N/A   Clear
12:34 PM 17.6 °F 8.2 °F 15.8 °F 93% 30.26 in 10.0 mi SSE 6.9 mph - N/A   Clear
12:54 PM 17.6 °F 9.3 °F 17.6 °F 100% 30.25 in 10.0 mi SSE 5.8 mph - N/A   Scattered Clouds
1:14 PM 19.4 °F 10.4 °F 17.6 °F 93% 30.24 in 10.0 mi SSE 6.9 mph - N/A   Scattered Clouds
1:34 PM 19.4 °F 11.5 °F 17.6 °F 93% 30.23 in 10.0 mi South 5.8 mph - N/A   Clear
1:54 PM 21.2 °F 12.6 °F 17.6 °F 86% 30.23 in 10.0 mi SSE 6.9 mph - N/A   Scattered Clouds
2:14 PM 21.2 °F 12.6 °F 17.6 °F 86% 30.22 in 10.0 mi SSE 6.9 mph - N/A   Mostly Cloudy
2:34 PM 21.2 °F 13.6 °F 17.6 °F 86% 30.22 in 10.0 mi SSE 5.8 mph - N/A   Overcast
2:54 PM 23.0 °F 14.7 °F 15.8 °F 74% 30.20 in 10.0 mi South 6.9 mph - N/A   Mostly Cloudy
3:14 PM 23.0 °F 15.8 °F 15.8 °F 74% 30.19 in 10.0 mi SSW 5.8 mph - N/A   Overcast
3:33 PM 23.0 °F 14.7 °F 15.8 °F 74% 30.19 in 10.0 mi South 6.9 mph - N/A   Overcast
3:54 PM 24.8 °F 15.3 °F 15.8 °F 69% 30.19 in 10.0 mi South 9.2 mph - N/A   Overcast
4:14 PM 24.8 °F 16.9 °F 15.8 °F 69% 30.19 in 10.0 mi South 6.9 mph - N/A   Overcast
4:33 PM 24.8 °F 15.3 °F 17.6 °F 74% 30.19 in 10.0 mi South 9.2 mph - N/A   Overcast
4:54 PM 24.8 °F 16.1 °F 17.6 °F 74% 30.18 in 10.0 mi South 8.1 mph - N/A   Overcast
5:14 PM 23.0 °F 13.9 °F 17.6 °F 80% 30.18 in 10.0 mi SSE 8.1 mph - N/A   Overcast
5:33 PM 23.0 °F 13.9 °F 17.6 °F 80% 30.17 in 10.0 mi South 8.1 mph - N/A   Overcast
5:54 PM 23.0 °F 13.1 °F 17.6 °F 80% 30.17 in 10.0 mi South 9.2 mph - N/A   Overcast
6:14 PM 23.0 °F 13.9 °F 17.6 °F 80% 30.16 in 10.0 mi SSE 8.1 mph - N/A   Overcast
6:33 PM 21.2 °F 10.9 °F 19.4 °F 93% 30.16 in 10.0 mi SSE 9.2 mph - N/A   Overcast
6:54 PM 21.2 °F 9.5 °F 19.4 °F 93% 30.16 in 10.0 mi SE 11.5 mph - N/A   Overcast
7:14 PM 21.2 °F 10.1 °F 19.4 °F 93% 30.16 in 10.0 mi SSE 10.4 mph - N/A   Overcast
7:34 PM 21.2 °F 9.5 °F 19.4 °F 93% 30.16 in 10.0 mi SSE 11.5 mph - N/A   Overcast
7:54 PM 21.2 °F 10.1 °F 19.4 °F 93% 30.15 in 10.0 mi SSE 10.4 mph - N/A   Overcast
8:14 PM 21.2 °F 10.1 °F 17.6 °F 86% 30.15 in 10.0 mi SSE 10.4 mph - N/A   Overcast
8:34 PM 21.2 °F 10.1 °F 17.6 °F 86% 30.15 in 10.0 mi SSE 10.4 mph - N/A   Overcast
8:54 PM 21.2 °F 10.1 °F 19.4 °F 93% 30.15 in 10.0 mi SSE 10.4 mph - N/A   Overcast
9:14 PM 21.2 °F 10.1 °F 19.4 °F 93% 30.15 in 10.0 mi SSE 10.4 mph - N/A   Overcast
9:34 PM 21.2 °F 8.9 °F 19.4 °F 93% 30.14 in 10.0 mi SSE 12.7 mph - N/A   Overcast
9:54 PM 21.2 °F 9.5 °F 17.6 °F 86% 30.13 in 10.0 mi SSE 11.5 mph - N/A   Overcast
10:14 PM 21.2 °F 8.9 °F 19.4 °F 93% 30.12 in 10.0 mi SSE 12.7 mph - N/A   Overcast
10:34 PM 21.2 °F 9.5 °F 19.4 °F 93% 30.12 in 10.0 mi South 11.5 mph - N/A   Overcast
10:54 PM 21.2 °F 10.1 °F 19.4 °F 93% 30.11 in 10.0 mi South 10.4 mph - N/A   Overcast
11:14 PM 21.2 °F 8.9 °F 19.4 °F 93% 30.11 in 10.0 mi SSE 12.7 mph - N/A   Overcast
11:34 PM 21.2 °F 9.5 °F 19.4 °F 93% 30.10 in 10.0 mi SSE 11.5 mph - N/A   Overcast
11:54 PM 21.2 °F 10.1 °F 19.4 °F 93% 30.09 in 10.0 mi SSE 10.4 mph - N/A   Overcast